Regional Weather Roundup
Issued by NWS Boston, MA

Home | Current Version | Previous Version | Text Only | Print | Product List | Glossary On
Versions: 1 2 3 4 5 6 7 8 9 10 11 12 13 14 15 16 17 18 19 20 21 22 23 24 25 26 27 28 29 30 31 32 33 34 35 36 37 38 39 40 41 42 43 44 45 46 47 48 49 50
000
ASUS41 KBOX 232110
RWRBOX

REGIONAL WEATHER ROUNDUP
NATIONAL WEATHER SERVICE TAUNTON MA
500 PM EDT SUN JUL 23 2017

NOTE:  "FAIR" INDICATES FEW OR NO CLOUDS BELOW 12,000 FEET WITH NO
SIGNIFICANT WEATHER AND/OR OBSTRUCTIONS TO VISIBILITY.

MAZALL-232200-
EASTERN MASSACHUSETTS

CITY           SKY/WX    TMP DP  RH WIND       PRES   REMARKS
BOSTON         CLOUDY    67  53  61 E12       29.90R
BEVERLY        CLOUDY    70  53  54 NE8       29.89R
LAWRENCE       CLOUDY    74  50  42 NE7       29.91S
BEDFORD        CLOUDY    72  46  39 SE9       29.88R
BLUE HILL        N/A     70  50  49 NE9       29.90R
NORWOOD        MOSUNNY   74  53  48 NE9       29.88R
MARSHFIELD     CLOUDY    70  57  64 VRB6G13   29.90R
PLYMOUTH       PTSUNNY   70  53  54 NE10      29.90R
TAUNTON        MOSUNNY   73  49  42 VRB6      29.88R
NEW BEDFORD    MOSUNNY   73  53  49 NE9       29.87R
$$

MAZALL-232200-
CAPE COD AND THE ISLANDS

CITY           SKY/WX    TMP DP  RH WIND       PRES   REMARKS
FALMOUTH       MOSUNNY   70  57  64 NE12      29.89S
HYANNIS        MOSUNNY   72  55  55 NE8       29.86S
CHATHAM        MOSUNNY   70  56  61 NE12      29.89R
PROVINCETOWN   MOSUNNY   70  57  63 NE9       29.90S
NANTUCKET      MOSUNNY   71  60  68 NE14      29.87R
MARTHAS VNYRD  MOSUNNY   75  56  51 E13       29.87S
$$

MAZALL-232200-
CENTRAL AND WESTERN MASSACHUSETTS

CITY           SKY/WX    TMP DP  RH WIND       PRES   REMARKS
WORCESTER      MOSUNNY   73  48  41 E8        29.90R
FITCHBURG      CLOUDY    76  55  48 E8        29.88S
ORANGE         CLOUDY    75  56  51 SE5       29.87S
SPRINGFIELD    PTSUNNY   80  55  42 E7        29.83S
WESTFIELD      MOSUNNY   81  58  45 E5        29.83F
NORTH ADAMS    CLOUDY    75  59  57 E6        29.85F
PITTSFIELD     PTSUNNY   75  58  55 E7        29.85F
$$

RIZALL-232200-
RHODE ISLAND

CITY           SKY/WX    TMP DP  RH WIND       PRES   REMARKS
PROVIDENCE     PTSUNNY   75  52  44 E7        29.88R
NEWPORT        CLOUDY    75  55  49 E5        29.87R
BLOCK ISLAND   PTSUNNY   70  59  68 NE12      29.87S
WESTERLY       CLOUDY    76  57  51 E9        29.87S HAZE
$$

CTZALL-232200-
CONNECTICUT

CITY           SKY/WX    TMP DP  RH WIND       PRES   REMARKS
BRADLEY INTL   PTSUNNY   80  59  48 E7        29.83F
HARTFORD       MOSUNNY   80  61  52 SE7       29.83R
BRIDGEPORT     PTSUNNY   76  62  62 SE15      29.84R
DANBURY        CLOUDY    76  67  73 SE10      29.85R
GROTON         MOSUNNY   74  59  59 E13       29.85S
NEW HAVEN      PTSUNNY   75  61  61 SE13      29.85R
CHESTER        FAIR      75  61  60 VRB7      29.86R
MERIDEN        CLOUDY    78  64  61 S8        29.84R
WILLIMANTIC    MOSUNNY   80  58  46 VRB6      29.85S
OXFORD         CLOUDY    75  63  64 S6        29.86R
$$

MEZ002-015-021-024-NHZ003-005-008-011-012-014-VTZ005-008-232200-
NORTHERN NEW ENGLAND

CITY           SKY/WX    TMP DP  RH WIND       PRES   REMARKS
PORTLAND ME    MOSUNNY   70  44  39 S9        29.88F
BANGOR ME      PTSUNNY   76  42  29 MISG      29.87S
CONCORD NH     SUNNY     77  54  44 S6        29.87S
MANCHESTER NH  PTSUNNY   75  49  39 SE7       29.86F
NASHUA NH      CLOUDY    78  53  41 E7        29.88S
PORTSMOUTH NH  PTSUNNY   71  45  39 SE8       29.88S
JAFFREY NH     MOSUNNY   74  57  55 VRB6      29.89F
KEENE NH       MOSUNNY   76  57  51 S7        29.86F
BURLINGTON VT  MOSUNNY   78  53  41 NW10      29.86F
MT. WASHINGTON PTSUNNY   52  41  66 NW17G26     N/A
$$

NYZ052-076-232200-
EASTERN NEW YORK

CITY           SKY/WX    TMP DP  RH WIND       PRES   REMARKS
ALBANY         PTSUNNY   79  65  62 NE7       29.81F
NEW YORK CITY  LGT RAIN  77  69  76 E9        29.82R
$$

ANZALL-232200-
MARINE OBSERVATIONS

STATION/POSITION TIME  TEMP    WIND        PRES    VSBY  WAVE
                       AIR SEA DIR/SP/G                  HT/PER
                 (UTC) (F)     (DEG/KT/KT) (MB)    (MI)  (FT/S)
BOSTON BUOY      2050   66 67   60/  8/ 10 1012.1R         4/ 6
BUZZARDS BAY     2000   68      40/ 16/ 17 1011.5R
NANTUCKET SOUND  2050      69              1011.1R         1/ 3
MASS BAY-STELLWA 2004   66 65   50/ 10/ 12 1011.6F         4/ 6
ISLE OF SHOALS   2000   65      90/  5/  6 1012.2F
S OF BLOCK IS    2055      75                N/A           4/ 6
$$

......................KEY.........................
  SKY/WX - SKY CONDITION/PRESENT WEATHER
  TMP    - TEMPERATURE IN FAHRENHEIT
  DWPT   - DEWPOINT IN FAHRENHEIT
  RH     - RELATIVE HUMIDITY IN PERCENT
  WIND   - DIRECTION AND SPEED IN MPH
  PRES   - MEAN SEA LEVEL PRESSURE IN INCHES OF HG
  WCI    - WIND CHILL INDEX
  VSB    - VISIBILITY IN MILES
  HX     - HEAT INDEX
  TC     - TEMPERATURE IN CELSIUS
  VRB    - VARIABLE WIND DIRECTION
  N/A    - NOT AVAILABLE



USA.gov is the U.S. government's official web portal to all federal, state and local government web resources and services.